Location: Unspecified
(0.0000°N, 0.0000°E)
Time: 05:59:39
(UTC+00:00)

Vanguard 2 - Pass Details

Date: 21 September 2019
Orbit: 554 x 2937 km, 32.9° (Epoch: 14 October)

Event Time Altitude Azimuth Distance (km) Brightness Sun altitude
Rises 20:39:32 0° 220° (SW) 5,734 12.4 -41.6°
Reaches altitude 10° 20:43:20 10° 213° (SSW) 5,010 11.9 -42.6°
Enters shadow 20:54:21 39° 169° (S) 3,702 10.7 -45.3°
Maximum altitude 20:57:46 42° 146° (SE) 3,668 - -46.2°
Drops below altitude 10° 21:13:58 10° 81° (E) 5,635 - -50.2°
Sets 21:18:29 0° 75° (ENE) 6,487 - -51.4°
